Location: Unspecified
(0.0000°N, 0.0000°E)
Time: 06:44:24
(UTC+00:00)

ATLAS 5 CENTAUR R/B DEB - Visible Passes

Search period start: 17 February 2026 00:00
Search period end: 27 February 2026 00:00
Orbit: 8621 x 34519 km, 12.8° (Epoch: 13 February)

Date Brightness Start Highest point End Pass type
(mag) Time Alt. Az. Time Alt. Az. Time Alt. Az.
18 Feb ? 01:37:44 10° WNW 03:26:54 18° WNW 06:38:27 10° W visible
19 Feb ? 20:07:31 10° ENE 22:50:52 17° E 00:26:34 10° E visible
20 Feb ? 15:36:18 10° WSW 16:27:37 87° SSE 03:34:19 10° E visible
21 Feb ? 17:49:47 10° W 19:01:51 81° NNW 05:57:10 10° ESE daylight
22 Feb ? 20:05:15 10° W 23:33:00 71° NW 08:11:24 10° ESE visible
23 Feb ? 22:32:54 10° W 01:28:13 43° WNW 10:26:06 10° E visible
25 Feb ? 02:09:25 10° WNW 03:22:01 13° WNW 04:10:22 12° WNW visible
